Overview Statistics Trail Chart Weather Telemetry Raw packets
 

This is the latest recevied weather packets stored in our database for station/object 4S6DRJ-13. If no packets are shown the sender has not sent any weather packets the latest 10 day(s).

<< 229 230 231 232 233 234 235 >>
Time Temp. Humidity Pressure Rain* Wind** Luminosity Snow
1788128519 27.78° C 83% 1008.9 hPa 0 mm 1.34 m/s, 255° 0 W/m² -
1788128458 27.78° C 83% 1009 hPa 0 mm 0.89 m/s, 292° 0 W/m² -
1788128397 27.78° C 83% 1008.9 hPa 0 mm 1.34 m/s, 282° 0 W/m² -
1788128336 27.78° C 83% 1008.8 hPa 0 mm 0.45 m/s, 237° 0 W/m² -
1788128275 27.78° C 83% 1008.7 hPa 0 mm 1.34 m/s, 77° 0 W/m² -
1788128214 27.78° C 83% 1008.7 hPa 0 mm 1.34 m/s, 305° 0 W/m² -
1788128153 27.78° C 83% 1008.8 hPa 0 mm 0.89 m/s, 235° 0 W/m² -
1788128092 27.78° C 83% 1008.8 hPa 0 mm 0.89 m/s, 291° 0 W/m² -
1788128031 27.78° C 83% 1009 hPa 0 mm 0.89 m/s, 250° 0 W/m² -
1788127971 27.78° C 83% 1009 hPa 0 mm 0.89 m/s, 283° 0 W/m² -
1788127909 27.78° C 83% 1008.8 hPa 0 mm 1.79 m/s, 287° 0 W/m² -
1788127848 27.78° C 83% 1008.9 hPa 0 mm 0.89 m/s, 206° 0 W/m² -
1788127787 27.78° C 83% 1009 hPa 0 mm 0.89 m/s, 226° 0 W/m² -
1788127726 27.78° C 83% 1009 hPa 0 mm 0.89 m/s, 213° 0 W/m² -
1788127665 27.78° C 83% 1009 hPa 0 mm 1.79 m/s, 92° 0 W/m² -
1788127604 27.78° C 83% 1009 hPa 0 mm 0.89 m/s, 304° 0 W/m² -
1788127543 27.78° C 83% 1009.1 hPa 0 mm 1.34 m/s, 264° 0 W/m² -
1788127482 27.78° C 83% 1009 hPa 0 mm 0.89 m/s, 259° 0 W/m² -
1788127421 27.78° C 83% 1008.9 hPa 0 mm 1.34 m/s, 244° 0 W/m² -
1788127360 27.78° C 83% 1008.9 hPa 0 mm 1.34 m/s, 276° 0 W/m² -
1788127299 27.78° C 83% 1009 hPa 0 mm 0.89 m/s, 250° 0 W/m² -
1788127238 27.78° C 83% 1008.8 hPa 0 mm 0.45 m/s, 281° 0 W/m² -
1788127177 27.78° C 83% 1009 hPa 0 mm 0.89 m/s, 326° 0 W/m² -
1788127116 27.78° C 83% 1008.8 hPa 0 mm 0.45 m/s, 343° 0 W/m² -
1788127055 27.78° C 83% 1008.8 hPa 0 mm 0.45 m/s, 311° 0 W/m² -

* Rain latest hour (hover to see other rain measurements)
** Current wind speed in m/s (hover to see current wind gust speed)